Location: Aranbee
(34.0885°N, 118.2342°W)
Time: 14:04:13
(UTC+00:00)

Tiros 1 - Pass Details

Date: 29 November 2020
Orbit: 630 x 663 km, 48.4° (Epoch: 21 January)

Event Time Altitude Azimuth Distance (km) Brightness Sun altitude
Rises 02:17:18 0° 305° (NW) 2,987 11.2 -19.0°
Reaches altitude 10° 02:20:45 10° 331° (NNW) 2,070 9.9 -19.7°
Maximum altitude 02:23:19 14° 3° (N) 1,795 9.3 -20.3°
Enters shadow 02:23:40 14° 8° (N) 1,800 9.2 -20.3°
Drops below altitude 10° 02:25:52 10° 36° (NE) 2,059 - -20.8°
Sets 02:29:17 0° 61° (ENE) 2,962 - -21.5°
